User: anonymous   Login
Location: Lynch Observatory
(39.9540°N, 75.1861°W)
Time: 19:28:58
(UTC-04:00)
Language:

ITUPSAT 1 - Orbit

View from above orbital plane
View from above orbital plane
View from above satellite
View from above satellite

Ground track
Ground track

The orbit data is extracted from the following two-line orbital elements,

1 35935U 09051E   24114.61243246  .00002752  00000-0  61479-3 0  9996
2 35935  98.4815 357.6164 0008644 138.4346 221.7511 14.57569441774312
Epoch (UTC): 23 April 2024 14:41:54
Eccentricity: 0.0008644
inclination: 98.4815°
perigee height: 695 km
apogee height: 707 km
right ascension of ascending node: 357.6164°
argument of perigee: 138.4346°
revolutions per day: 14.57569441
mean anomaly at epoch: 221.7511°
orbit number at epoch: 77431

The dashed part of the orbit path shows where the satellite is in the earth's shadow,  

DLR